Probability
0 0 0 0 0 0 0 0 0 0 0 0 0 0 0 0 0 0 0 0 0 1 2 1 0 0 0 1 2 4 4 3 1 1 1 1 1 0 0 0 0 0 0 0 0 0 0 0 0
0 0 0 0 0 0 0 0 0 0 0 0 0 0 0 0 0 0 0 0 0 1 2 1 1 0 0 1 2 4 5 4 2 3 3 3 2 1 0 0 0 0 0 0 0 0 0 0 0
0 0 0 0 0 0 0 0 0 0 0 0 0 0 1 1 1 0 0 0 0 1 2 3 2 1 0 0 1 4 6 5 4 5 5 4 2 1 0 0 0 0 0 0 0 0 0 0 0
0 0 0 0 0 0 0 0 0 0 0 0 0 2 3 3 1 1 1 1 1 1 3 4 3 1 0 0 1 3 5 6 6 5 5 4 2 0 0 0 0 0 0 0 0 0 0 0 0
0 0 0 0 0 0 0 0 0 0 1 1 2 4 6 5 3 3 3 2 1 1 3 6 5 3 1 1 1 3 5 6 6 6 5 4 2 1 0 0 0 0 0 0 0 0 0 0 0
0 0 0 0 0 0 0 0 0 0 1 2 2 5 8 8 7 6 4 3 2 2 4 8 7 4 3 2 1 4 7 8 7 5 4 3 2 1 0 0 0 0 0 0 0 0 0 0 0
0 0 0 0 0 0 0 0 0 1 2 2 3 6 9 10 9 8 6 5 3 3 4 7 7 4 2 1 3 7 10 10 7 5 3 1 1 0 0 0 0 0 0 0 0 0 0 0 0
0 0 0 0 0 0 0 0 1 3 3 3 6 10 15 16 14 11 10 8 6 4 4 6 7 6 3 3 5 9 12 12 11 8 5 3 2 1 1 2 2 2 1 0 0 0 0 0 0
0 0 0 0 0 0 0 0 1 4 6 11 16 24 31 30 21 15 13 12 11 9 7 7 9 10 8 7 8 9 10 13 14 11 9 9 8 5 5 8 9 6 3 2 1 0 0 0 0
0 0 0 0 0 0 0 1 1 5 13 22 30 39 46 40 26 15 12 13 15 14 12 11 12 12 10 10 10 9 9 12 13 12 13 15 17 16 16 20 21 15 8 7 6 5 4 3 2
0 0 0 0 0 0 0 1 4 12 23 32 37 44 47 41 26 17 15 16 18 16 14 12 12 10 9 11 12 12 14 17 18 17 18 21 25 27 29 34 34 27 19 17 16 14 11 9 8
0 0 0 0 0 0 0 3 10 24 35 39 42 44 43 38 30 24 24 24 21 16 12 11 11 10 11 14 14 15 19 25 28 27 25 26 30 32 36 41 40 34 29 26 25 22 19 15 13
0 0 0 0 0 1 1 5 18 34 43 47 48 45 42 39 36 33 31 29 25 19 13 12 13 15 19 22 21 18 22 28 32 33 31 29 31 34 38 41 38 33 31 30 30 28 24 19 17
0 0 0 0 0 1 3 9 25 39 47 51 50 47 45 43 40 36 34 33 30 24 20 18 17 20 26 30 27 23 23 26 28 29 28 26 26 29 34 35 32 28 27 28 30 29 26 22 20
0 0 0 0 1 1 3 13 28 40 45 49 50 49 49 47 41 36 37 38 35 29 27 26 22 21 24 27 25 21 19 18 22 25 23 19 18 19 23 24 21 22 22 24 25 24 23 21 18
0 0 0 0 1 2 3 11 23 32 38 42 44 45 45 43 40 38 39 41 39 35 32 29 23 17 16 15 14 12 10 13 19 23 22 18 15 13 13 14 14 16 20 20 19 17 17 16 13
0 0 0 0 1 2 3 7 15 22 29 33 35 36 36 38 39 38 38 40 39 36 31 25 19 15 12 9 7 6 7 11 16 18 18 16 13 11 10 11 11 12 16 18 16 15 15 14 12
0 0 0 0 0 1 2 4 9 16 20 24 28 30 32 35 36 33 30 31 32 28 23 18 16 14 12 8 8 9 11 11 12 11 10 9 7 6 8 9 7 8 12 15 15 15 14 13 12
0 0 0 0 0 0 0 2 7 12 14 17 21 27 29 29 28 24 19 19 21 19 15 13 13 12 10 9 10 12 13 11 8 6 5 4 3 3 4 6 5 6 10 13 14 14 13 11 10
0 0 0 0 0 0 0 2 5 9 11 12 15 20 22 20 17 14 11 10 11 12 11 10 10 9 8 8 10 12 12 9 5 4 5 4 2 2 2 4 5 6 8 9 10 11 9 7 6
0 0 0 0 0 0 0 1 3 6 9 9 10 12 13 11 9 8 6 4 4 6 7 7 7 7 7 8 9 10 9 6 3 4 6 5 3 3 3 4 4 5 6 6 6 6 5 5 5
0 0 0 0 0 0 0 0 1 3 4 5 5 6 6 6 5 5 3 1 1 3 5 6 7 7 9 11 11 10 7 4 4 5 6 6 4 3 3 3 3 4 4 4 4 3 3 5 7
0 0 0 0 0 0 0 0 0 0 1 1 1 3 3 3 2 1 1 0 1 3 5 6 8 10 14 16 16 14 7 3 4 6 6 6 4 2 2 2 2 2 3 3 3 3 3 5 6
0 0 0 0 0 0 0 0 0 0 0 0 1 1 1 1 0 0 0 0 1 2 3 4 8 12 14 15 16 14 8 3 3 4 4 3 2 1 1 1 1 1 1 1 2 2 2 3 4
0 0 0 0 0 0 0 0 0 0 0 0 0 0 0 0 0 0 0 0 0 1 1 1 4 7 7 7 8 7 5 3 2 2 1 1 0 0 0 0 0 0 0 0 1 1 1 2 2
0 0 0 0 0 0 0 0 0 0 0 0 0 0 0 0 0 0 0 0 0 0 0 0 1 2 2 2 3 3 2 2 1 1 0 0 0 0 0 0 0 0 0 0 0 0 0 1 1
0 0 0 0 0 0 0 0 0 0 0 0 0 0 0 0 0 0 0 0 0 0 1 1 1 1 1 2 2 2 2 2 1 0 0 0 0 0 0 0 0 0 0 0 0 0 0 0 0
0 0 0 0 0 0 0 0 0 0 0 0 0 0 0 0 0 0 0 0 0 0 1 2 2 2 2 1 1 1 1 1 1 0 0 0 0 0 0 0 0 0 0 0 0 0 0 0 0
0 0 0 0 0 0 0 0 0 0 0 0 0 0 0 0 0 0 0 0 0 0 1 1 1 2 1 0 0 0 0 0 0 0 0 0 0 0 0 0 0 0 0 0 0 0 0 0 0
0 0 0 0 0 0 0 0 0 0 0 0 0 0 0 0 0 0 0 0 0 0 0 0 0 1 1 0 0 0 0 0 0 0 0 0 0 0 0 0 0 0 0 0 0 0 0 0 0
Wind_Speed
14 11 7 5 7 6 4 5 5 6 5 5 4 3 4 6 6 7 6 13 15 17 18 17 13 12 12 11 11 11 11 12 12 12 11 11 10 10 9 8 7 6 5 5 5 5 6 6 6
11 8 6 6 7 2 5 6 8 8 4 2 3 2 4 7 8 7 9 13 16 17 17 16 15 12 12 12 11 11 11 11 11 11 11 10 10 9 8 7 6 5 5 5 5 5 5 5 6
10 8 6 6 4 3 5 7 8 6 2 1 3 5 6 7 6 6 10 16 16 15 15 16 15 13 12 12 11 11 11 11 10 10 10 9 9 8 7 7 6 5 5 5 4 4 5 5 5
7 7 6 8 4 3 5 7 7 4 3 2 3 7 8 7 4 7 14 16 16 15 14 17 14 13 12 12 11 10 10 10 10 9 9 8 8 7 7 6 6 5 5 4 4 4 4 5 5
7 6 8 8 2 2 4 7 7 3 2 3 3 8 9 6 7 12 14 15 15 15 14 17 14 13 12 11 11 11 10 10 9 9 8 7 7 7 6 6 5 5 4 4 4 4 4 5 5
6 6 9 6 0 2 3 5 5 3 3 4 5 8 8 7 10 12 13 14 14 14 14 16 14 12 12 11 11 10 10 10 9 9 8 7 7 6 6 6 6 5 5 5 4 4 5 5 5
7 7 9 7 4 1 4 6 5 3 3 4 3 7 9 10 11 12 12 11 12 12 12 13 14 12 12 10 10 10 9 9 9 8 8 7 7 7 7 7 7 7 6 6 6 6 6 6 6
5 7 8 6 5 1 4 5 5 4 4 4 1 5 10 12 11 12 11 11 11 11 11 11 11 11 11 11 11 10 9 9 9 8 7 7 7 8 8 9 9 7 7 7 7 7 7 7 8
6 8 7 4 4 3 5 6 4 2 4 4 5 7 14 17 14 12 11 11 10 9 8 9 10 9 8 8 10 10 10 9 9 9 9 8 7 8 8 9 6 7 8 7 7 8 8 8 10
7 7 4 4 7 8 7 6 4 2 5 7 10 12 16 15 14 12 12 12 11 10 9 7 6 6 5 5 6 6 6 7 7 5 6 6 4 4 5 3 4 7 8 8 9 8 9 10 8
6 7 6 6 7 9 7 4 3 3 3 4 9 13 14 14 12 11 10 10 10 9 8 7 5 5 5 3 3 3 3 3 4 4 4 4 4 4 4 3 4 6 8 7 6 7 7 7 6
6 6 7 8 8 8 6 3 2 5 6 5 8 11 12 12 11 10 9 9 8 7 6 5 5 5 4 3 2 2 3 2 3 2 4 3 3 4 4 3 3 3 3 3 4 4 5 7 7
8 6 5 5 5 4 3 0 3 6 6 7 9 10 11 10 9 8 8 8 8 7 6 5 4 4 4 3 2 2 2 2 3 2 3 4 4 4 4 3 3 4 3 4 5 5 5 6 7
5 6 6 4 2 1 2 3 3 6 6 8 9 9 8 8 8 8 8 7 7 6 6 5 5 5 4 3 3 2 3 2 2 2 2 4 4 4 4 4 4 4 4 4 4 5 5 6 6
7 8 5 2 2 3 3 4 5 5 5 8 9 8 8 7 7 6 6 6 6 6 6 5 5 4 4 3 3 3 3 2 2 1 2 3 4 4 4 4 4 4 4 4 5 5 5 6 6
8 8 4 5 1 2 7 4 7 3 5 8 8 8 8 6 6 6 6 5 5 5 5 4 3 4 4 3 3 3 2 2 1 1 1 2 3 4 4 4 4 3 4 4 4 6 6 6 6
6 3 2 5 2 1 5 4 6 3 5 7 7 8 8 8 7 6 6 6 5 5 4 4 3 3 3 3 3 3 2 2 2 1 1 2 3 4 4 4 3 4 4 4 6 5 5 6 6
6 6 3 2 4 1 2 5 5 4 4 6 7 7 8 8 7 7 5 5 5 5 4 3 3 2 2 2 2 2 2 2 1 1 1 2 2 3 4 4 3 6 5 5 5 5 5 6 6
6 6 3 4 2 1 4 5 5 5 5 5 6 6 8 8 8 6 6 5 5 5 5 3 3 3 2 1 2 2 2 1 1 2 1 2 3 3 4 5 4 5 5 6 7 6 7 7 5
5 4 1 5 2 1 4 5 5 5 4 4 5 6 7 8 8 7 6 5 5 5 4 4 3 3 2 1 2 2 2 2 2 2 1 3 3 4 4 4 6 5 5 7 7 6 7 7 6
3 4 2 3 5 4 4 5 6 5 4 4 4 5 6 7 7 7 6 5 5 5 4 3 2 2 2 2 3 2 3 4 4 3 3 3 4 5 5 6 7 6 8 7 6 7 9 8 7
2 2 1 4 5 3 3 2 6 6 7 7 7 7 7 6 6 6 6 6 5 5 4 3 3 3 3 4 4 5 5 6 5 4 4 4 5 6 6 7 7 7 8 7 8 7 7 8 8
3 2 3 4 3 3 2 2 6 6 7 8 9 8 7 6 6 5 5 5 4 4 3 3 3 3 3 3 4 5 6 6 5 5 5 6 6 6 7 7 7 7 8 8 8 8 8 8 9
6 5 5 6 6 2 1 2 4 6 7 8 10 10 9 7 6 6 5 5 4 3 3 3 3 2 2 3 4 5 6 7 7 7 7 7 6 5 6 7 7 8 8 8 8 9 10 9 9
7 6 4 4 3 3 3 2 4 5 5 7 9 10 9 8 7 6 6 5 5 4 3 2 2 2 2 3 4 4 5 6 7 8 7 7 7 6 6 7 7 8 8 8 9 9 10 10 10
5 7 5 5 3 3 4 1 6 6 6 6 7 8 8 7 6 6 5 5 4 3 3 2 2 2 2 3 3 4 5 6 6 5 8 8 7 7 7 8 9 9 10 10 9 9 10 9 9
3 3 5 4 2 1 3 3 6 7 8 9 9 9 8 7 6 6 5 4 4 3 2 2 1 2 3 3 3 4 5 6 7 7 8 8 6 8 8 9 9 10 10 10 10 9 10 9 10
5 1 3 5 4 2 3 3 4 10 10 10 10 9 8 7 7 6 5 4 3 3 2 1 1 2 4 5 5 5 6 6 7 8 8 9 9 9 10 10 10 10 10 10 10 11 10 10 10
5 4 4 4 5 6 1 3 4 6 8 9 9 8 7 7 6 6 5 4 4 3 2 2 2 3 4 5 5 6 7 8 8 8 9 9 9 9 10 10 10 11 11 10 10 11 11 11 12
5 3 4 4 2 4 5 3 7 4 6 7 7 7 6 6 6 6 6 5 3 2 2 3 3 4 5 5 6 7 7 8 9 9 9 9 10 10 10 10 11 11 11 11 11 12 12 12 12
Wind_Direction
172 184 206 228 239 230 63 46 16 7 12 25 34 12 13 24 3 53 105 140 141 143 139 148 147 149 148 146 143 143 144 148 150 151 151 151 151 151 150 149 147 146 141 128 114 103 98 97 100
174 182 213 238 259 227 86 34 13 4 2 38 72 50 56 63 50 91 130 138 145 143 144 151 143 147 146 143 142 141 142 143 144 146 148 150 151 152 153 155 156 157 153 141 131 122 114 111 112
172 208 248 252 263 340 29 18 1 354 18 104 81 53 46 56 80 109 131 144 146 140 142 138 148 149 148 144 142 141 141 141 142 144 146 149 153 156 160 163 166 170 168 159 151 141 132 128 126
189 216 234 253 266 26 353 358 349 344 94 94 110 95 82 52 57 114 138 147 143 144 148 140 154 152 151 148 145 142 142 143 145 146 148 153 158 164 169 171 174 178 180 177 167 159 150 146 146
233 250 248 244 258 17 350 355 340 336 78 107 112 103 90 65 87 123 142 147 149 149 146 143 154 154 155 154 152 151 150 151 152 154 157 162 168 177 183 185 186 188 191 189 181 177 171 167 169
230 248 257 259 215 4 20 9 352 33 95 107 111 109 90 102 119 133 144 153 151 150 148 139 152 157 159 161 162 160 159 159 161 164 169 175 181 189 196 201 204 205 208 207 201 198 193 188 189
267 266 274 283 285 284 26 3 8 37 100 91 107 112 115 118 124 135 141 150 152 152 146 150 159 162 164 166 170 169 167 168 171 175 181 188 197 203 211 215 220 222 223 220 218 217 214 204 203
283 270 258 257 267 289 24 357 15 12 79 74 80 128 132 132 133 133 138 148 152 154 154 156 163 163 172 173 174 176 176 178 179 183 191 200 210 215 218 225 217 230 235 233 232 230 225 218 213
256 255 260 279 291 320 358 342 14 31 107 88 56 67 114 130 133 137 142 147 151 157 159 166 165 167 180 179 166 180 183 186 191 195 196 210 224 220 209 228 201 229 242 241 240 241 238 232 218
243 264 295 329 310 314 327 325 339 197 136 113 99 101 121 134 141 148 152 154 159 164 169 170 174 161 187 188 168 196 198 186 212 211 204 220 236 254 255 154 207 241 248 248 240 243 241 240 231
245 280 315 306 307 306 298 309 321 254 128 112 128 133 139 140 145 150 153 157 157 166 172 171 170 167 191 190 198 209 220 200 218 220 228 243 249 246 250 232 207 228 237 243 227 230 240 242 249
257 274 291 302 315 301 296 303 18 27 44 67 122 137 143 148 148 149 147 146 146 161 168 174 172 176 191 207 216 230 233 225 240 219 243 247 253 258 257 250 246 238 236 243 252 250 252 259 257
249 279 301 301 307 315 292 62 71 64 70 100 121 134 140 142 138 133 134 141 148 161 173 173 184 187 193 198 235 248 266 265 250 256 250 257 253 257 259 255 258 258 249 237 242 251 254 260 260
294 288 288 288 309 227 187 124 112 77 93 114 125 129 132 131 130 132 140 145 152 161 166 174 191 190 191 201 211 236 257 247 260 239 249 258 258 262 262 251 251 257 262 274 268 263 262 260 261
269 268 236 174 179 156 184 140 84 85 116 117 117 115 109 111 121 129 134 141 148 153 154 170 181 184 194 215 227 226 232 237 243 240 238 253 263 264 265 260 254 260 265 259 261 272 269 262 260
244 247 223 116 169 174 239 154 101 108 125 117 119 118 114 108 111 110 114 120 129 140 147 164 168 161 180 200 228 240 248 244 253 251 246 247 261 264 271 272 273 271 263 261 260 259 264 265 268
222 289 358 119 72 203 244 113 104 128 136 126 127 125 121 118 110 105 111 117 120 132 143 155 154 160 177 192 215 221 228 249 249 238 247 252 263 266 264 274 287 267 262 262 266 271 276 276 274
342 334 346 56 71 202 163 106 116 125 132 130 128 127 125 117 112 113 113 118 128 136 141 150 159 156 176 194 203 226 224 227 246 266 289 283 277 275 283 272 276 277 270 265 267 276 268 274 274
314 310 354 68 80 170 136 131 126 129 139 133 129 126 124 117 118 125 131 135 141 142 136 147 164 157 189 209 245 241 236 242 238 246 275 282 292 293 286 294 290 276 277 280 280 276 269 266 272
275 283 99 112 102 179 138 136 135 131 131 133 132 137 135 134 137 142 147 150 152 147 149 166 177 177 211 191 279 291 301 282 286 292 275 278 287 292 284 301 292 286 287 272 272 270 279 278 265
281 310 343 124 142 157 168 148 154 147 155 153 155 153 149 152 150 152 158 157 158 158 169 170 173 204 229 238 244 242 240 250 243 254 251 271 288 289 301 298 296 303 286 280 282 275 265 273 271
310 38 211 181 211 158 248 175 152 164 174 176 174 173 172 168 164 165 166 166 171 173 178 181 202 223 234 243 260 275 283 291 306 295 296 291 278 285 289 289 289 288 289 290 274 269 276 268 269
51 124 194 204 222 185 198 255 127 167 191 188 180 180 182 177 176 177 176 177 184 186 188 189 201 224 242 262 269 274 282 293 293 298 293 288 283 278 282 287 291 287 282 286 291 291 278 273 269
142 167 177 210 228 194 92 270 129 159 186 182 178 182 187 185 186 186 185 185 193 194 198 196 191 215 244 262 275 281 294 298 302 298 297 288 284 280 281 285 284 281 283 283 276 275 269 268 276
208 240 232 214 215 92 117 263 91 129 162 176 178 181 186 191 197 193 194 191 190 192 192 193 188 211 249 271 284 291 299 293 281 289 295 294 294 292 295 297 293 287 285 280 276 270 272 271 266
228 277 314 323 349 105 170 177 114 138 155 173 183 184 189 197 197 195 192 190 187 187 187 195 208 244 276 287 297 300 296 289 300 309 305 298 296 302 313 296 287 285 282 278 275 272 265 260 262
225 260 332 291 264 239 124 137 144 163 179 185 190 195 199 198 192 188 183 183 178 179 177 195 229 272 291 302 297 286 291 300 304 297 279 287 296 293 293 292 287 284 280 277 276 270 272 268 262
315 291 242 288 320 319 146 177 156 177 188 188 193 197 193 187 183 173 166 163 155 157 158 199 271 286 292 286 289 294 294 291 291 289 298 295 292 288 287 286 285 282 278 274 270 271 263 262 261
184 210 264 295 322 312 339 92 95 172 186 191 191 193 188 185 176 162 156 152 160 179 198 236 260 271 282 289 290 293 292 295 292 287 288 289 288 288 284 285 285 282 279 276 271 269 273 266 264
260 263 242 279 286 285 301 93 121 169 191 197 192 180 178 174 165 162 159 165 186 214 253 269 281 283 288 291 289 290 293 293 292 293 296 292 288 284 284 283 283 281 279 276 272 270 271 269 266